Retour au catalogue

FENGYUN 1C DEB

ActifSSO
NORAD 30684·DEBRIS·🇨🇳 China

Lancé May 10, 1999 depuis Taiyuan Satellite Launch Center

Loading…

Prochains Passages (prochaines 24 heures)

TLE

FraisSource: Space-Track

Époque: Sep 14, 2026, 02:04 UTC

1 30684U 99025AQS 26257.08658231  .00000752  00000-0  78563-3 0  9997
2 30684  99.5112 299.3427 0233702 282.1948  75.3112 13.67329639973914

Suivez FENGYUN 1C DEB en temps réel avec AllMySat

Download on the App Store